NOAA 16 DEB, 41402

Orbit data source: Space-Track

NOAA 16 DEB, 41402 is space debris in SSO originally from a launch on Thu, 21 Sep 2000 UTC launched from the Air Force Western Test Range (AFWTR). Debris objects in space refer to the collection of defunct objects orbiting the Earth. Examples of debris include non-operational satellites, rocket bodies, and fragments generated from explosions, collisions, or faulty payload assembly.

Loading next visibility...
Identifier
41402, 2000-055KF
Orbit
SSO
Country
Flag of USUS
Related business
Manufacturer
Unknown
Mission
Spacecraft
Bus & Motor
Unknown
Mass
Unknown
Launch date (UTC)
2000-09-21 (25 years ago)
Launch vehicle
Unknown
Launch site
Air Force Western Test Range (AFWTR)
Object type
Payload
Rocket body
Debris
Shape & HBR
Unknown shape, 0.1 m
Radar Cross Section
Small (<0.1 m²)

Expand to show TLE details & history
Last TLE update: 2 days ago

TLE from 2 days ago
0 NOAA 16 DEB
1 41402U 00055KF  25295.01957053  .00004308  00000-0  21415-2 0  9994
2 41402  98.6975 324.0593 0030898 209.0486 150.8971 14.17317520498610
Epoch: 2025-10-22T00:28Z
TLE epoch observation values (Epoch: 2025-10-22T00:28:10.893Z)
Latitude
-0.00003°
Longitude
-73.68527°
Altitude
856.842 km
Speed
7.414 km/s
True Right ascension
21h 36m 14s
True Declination
0° 00' 00"
Sunlit
Object was in daylight at epoch
Visualization orbit readout
Latitude
Unknown
Longitude
Unknown
Altitude
Unknown
Speed
Unknown
Apparent Right ascension
Unknown
Apparent Declination
Unknown
Sunlit
N/A
Visualization observer readout
Local Sidereal Time
21:04:58
Azimuth
Unknown
Elevation
Unknown
Doppler factor
Unknown
Orbital elements
Apogee altitude
853.877 km
Perigee altitude
809.324 km
Semi-major axis
7,209.738 km
Eccentricity
0.00309
Inclination
98.6975°
RAAN
324.0593°
Arg. of periapsis
209.0486°
True anomaly
151.06873°
Mean anomaly
150.8971°
Eccentric anomaly
150.98297°
Mean motion
3.54539 °/min
Orbital period
101.54 mins
BSTAR
0.0021415
Loading maneuver chart data...
Computing Atmospheric mass density...
Loading historical data...
Loading historical data...
Loading historical data...
Loading historical data...
Loading historical data...
Loading historical data...
Loading historical data...

Documentation

Showing up to 5 results
|